カタログに戻る

STARLINK-37732

運用中通信SSO
NORAD 69307·PAYLOAD·🇺🇸 United States

打ち上げ May 30, 2026 から Vandenberg Space Force Base

Loading…

次のパス (今後24時間)

TLE

最新Source: CelesTrak SupGP

元期: Sep 15, 2026, 03:35 UTC

1 69307C 26119M   26258.14979167 -.00049774  00000+0 -15454-2 0  2582
2 69307  97.2835 282.9642 0001503  88.0713 272.5490 15.33458741    11

AllMySatでSTARLINK-37732をリアルタイム追跡

Download on the App Store